Location: El Diablo
(32.4667°N, 116.4500°W)
Time: 01:04:26
(UTC+00:00)

NOAA 12 - Pass Details

Date: 10 September 2024
Orbit: 793 x 814 km, 98.6° (Epoch: 06 October)

Event Time Altitude Azimuth Distance (km) Brightness Sun altitude
Rises 12:44:08 0° 15° (NNE) 3,297 7.7 -9.7°
Reaches altitude 10° 12:46:29 10° 18° (NNE) 2,365 7.0 -9.2°
Maximum altitude 12:51:42 70° 102° (ESE) 842 4.5 -8.2°
Drops below altitude 10° 12:56:53 10° 186° (S) 2,358 6.4 -7.1°
Sets 12:59:13 0° 188° (S) 3,287 7.1 -6.6°
